Regional Weather Roundup
Issued by NWS Little Rock, AR

Home | Current Version | Previous Version | Graphics & Text | Print | Product List | Glossary On
Versions: 1 2 3 4 5 6 7 8 9 10 11 12 13 14 15 16 17 18 19 20 21 22 23 24 25 26 27 28 29 30 31 32 33 34 35 36 37 38 39 40 41 42 43 44 45 46 47 48 49 50
000
ASUS44 KLZK 300505
RWRLZK

WEATHER ROUNDUP FOR ARKANSAS
NATIONAL WEATHER SERVICE LITTLE ROCK AR
1200 AM CDT SAT JUL 30 2016

NOTE: "FAIR" INDICATES FEW OR NO CLOUDS BELOW 12,000 FEET WITH NO
SIGNIFICANT WEATHER AND/OR OBSTRUCTIONS TO VISIBILITY.

ARZ001-003-010-029-300600-
NORTHWEST ARKANSAS

CITY           SKY/WX    TMP DP  RH WIND       PRES   REMARKS
FAYETTEVILLE   CLOUDY    72  72 100 CALM      30.01S
FORT SMITH     CLOUDY    78  70  76 CALM      29.97R
HARRISON       CLOUDY    71  70  96 CALM      30.02R
BENTONVILLE    CLEAR     73  66  78 CALM      30.02S
ROGERS         CLEAR     72  70  93 CALM      30.02S
SILOAM SPGS    PTCLDY    72  63  73 CALM      30.02S
HIGHFILL       MOCLDY    74  72  93 CALM      30.01
$$

ARZ004-005-016-300600-
NORTH CENTRAL ARKANSAS

CITY           SKY/WX    TMP DP  RH WIND       PRES   REMARKS
BATESVILLE     CLOUDY    72  70  94 SE3       29.98S
FLIPPIN        MOCLDY    72  68  88 CALM      29.97R
MTN HOME       CLOUDY    70  70 100 CALM      29.99S
$$

ARZ040-041-300600-
WEST CENTRAL ARKANSAS

CITY           SKY/WX    TMP DP  RH WIND       PRES   REMARKS
MENA             N/A    N/A N/A N/A MISG        N/A
MOUNT IDA      CLOUDY    73  73 100 CALM      29.98R
$$

ARZ009-017-025-026-028-300600-
NORTHEAST ARKANSAS

CITY           SKY/WX    TMP DP  RH WIND       PRES   REMARKS
CORNING          N/A     72  72 100 CALM      29.98S
JONESBORO      CLOUDY    73  70  90 CALM      29.97R
NEWPORT        CLOUDY    73  73 100 SW3       29.99R
WALNUT RIDGE   MOCLDY    72  68  88 CALM      29.97S
BLYTHEVILLE    PTCLDY    72  71  97 CALM      29.96S
$$

ARZ022-023-033-042-044-300600-
CENTRAL ARKANSAS

CITY           SKY/WX    TMP DP  RH WIND       PRES   REMARKS
LITTLE ROCK    LGT RAIN  76  72  87 SE5       29.98F
N LITTLE ROCK    N/A     74  72  95 CALM      29.95F
JACKSONVILLE   DRIZZLE   74  74 100 SE2       29.98S
SEARCY         CLOUDY    72  72 100 CALM      30.10S
HOT SPRINGS    LGT RAIN  73  71  93 CALM      29.97F
RUSSELLVILLE   CLOUDY    76  74  93 CALM      29.97S
$$

ARZ036-300600-
EAST ARKANSAS

CITY           SKY/WX    TMP DP  RH WIND       PRES   REMARKS
WEST MEMPHIS   CLOUDY    73  71  93 CALM      29.97S
$$

ARZ050-053-066-070-073-300600-
SOUTHWEST ARKANSAS

CITY           SKY/WX    TMP DP  RH WIND       PRES   REMARKS
ARKADELPHIA    FAIR      73  71  93 SW9       29.98S
CAMDEN         LGT RAIN  73  68  83 CALM      29.99F
TEXARKANA      LGT RAIN  72  71  97 SE10      30.00F
EL DORADO      HVY RAIN  75  72  90 NW7G18    30.02R FOG
DE QUEEN       MOCLDY    71  70  96 CALM      30.00R
$$

ARZ056-057-069-300600-
SOUTHEAST ARKANSAS

CITY           SKY/WX    TMP DP  RH WIND       PRES   REMARKS
PINE BLUFF     CLOUDY    73  72  96 SW3       29.99F THUNDER
STUTTGART      MOCLDY    73  70  88 S5        29.98F
MONTICELLO     CLEAR     76  74  93 CALM      29.99S

$$





USA.gov is the U.S. government's official web portal to all federal, state and local government web resources and services.